Regional Weather Roundup
Issued by NWS

Home | Current Version | Previous Version | Text Only | Print | Product List | Glossary On
Versions: 1 2 3 4 5 6 7 8 9 10 11 12 13 14 15 16 17 18 19 20 21 22 23 24 25 26 27 28 29 30 31 32 33 34 35 36 37 38 39 40 41 42 43 44 45 46 47 48 49 50
000
ASUS43 KTOP 290508
RWRKS

WEATHER ROUNDUP FOR KANSAS
NATIONAL WEATHER SERVICE GOODLAND KS
1200 AM CDT FRI APR 29 2016

NOTE:  "FAIR" INDICATES FEW OR NO CLOUDS BELOW 12,000 FEET WITH NO
SIGNIFICANT WEATHER AND/OR OBSTRUCTIONS TO VISIBILITY.

KSZ001>006-013>018-027>032-041>047-290600-
NORTHWEST KANSAS

CITY           SKY/WX    TMP DP  RH WIND       PRES   REMARKS
GOODLAND       CLOUDY    42  38  85 NE6       30.07R
HAYS           PTCLDY    48  37  66 NE14      30.06F
HILL CITY      CLOUDY    45  42  89 NE8       30.09S
RUSSELL        CLOUDY    48  43  82 NE13      30.05F
$$

KSZ061>065-074>080-084>089-290600-
SOUTHWEST KANSAS

CITY           SKY/WX    TMP DP  RH WIND       PRES   REMARKS
DODGE CITY     CLOUDY    51  42  71 E22       29.98F
ELKHART          N/A     49  42  77 E17         N/A
GARDEN CITY    CLOUDY    50  40  68 NE18      29.97F
GREAT BEND     CLOUDY    52  41  66 NE16      30.04S
LIBERAL        CLOUDY    50  43  76 E21G28    29.90F
PRATT          RAIN      49  47  94 E8        30.04R
$$

KSZ066>073-081>083-090>101-290600-
SOUTHEAST KANSAS

CITY           SKY/WX    TMP DP  RH WIND       PRES   REMARKS
CHANUTE        CLOUDY    58  49  72 N10       30.02R
COFFEYVILLE    CLOUDY    58  51  78 N7        29.98R
HUTCHINSON     RAIN      52  48  86 NE12      30.05S
MEDICINE LODGE   N/A     54  50  86 NE13G26   30.01R
NEWTON         CLOUDY    52  43  71 N9        30.08S
PARSONS        CLOUDY    58  52  80 N6        30.00S
WICHITA INTL   LGT RAIN  59  49  69 N16       30.01F
WICHITA JABRA  CLOUDY    56  49  77 NE10      30.04S
WINFIELD       CLOUDY    60  49  66 NE14      29.98F
$$

KSZ007>012-019>026-033>040-048>060-102>105-290600-
NORTHEAST KANSAS

CITY           SKY/WX    TMP DP  RH WIND       PRES   REMARKS
CONCORDIA      CLOUDY    49  43  80 E3        30.10S
EMPORIA        CLOUDY    53  46  77 N12       30.06S
LAWRENCE       CLOUDY    51  47  86 NW9       30.09R
MANHATTAN      CLOUDY    53  45  74 N5        30.10R
MARYSVILLE     CLOUDY    48  43  81 N3        30.10F
OLATHE IND     CLOUDY    50  47  89 N8        30.07S
OLATHE EXE     MOCLDY    51  45  79 N8        30.07R
SALINA         CLOUDY    53  45  74 NE8       30.10S
TOPEKA BILLARD CLOUDY    51  47  86 N7        30.09R
TOPEKA FORBES  CLOUDY    53  46  77 N6        30.08R
$$



USA.gov is the U.S. government's official web portal to all federal, state and local government web resources and services.